Flag for Cabo Verde Weather past 2 weeks in Santa Maria, Cabo Verde

Now
68 °F

Partly cloudy.


Feels Like: 68 °F
Forecast: 67 / 77 °F
Wind: 16 mph from Northeast

Location: Sal

Current Time: Apr 18, 2015 at 11:27:23 PM

Latest Report: Apr 18, 2015 at 11:00 PM


Visibility: N/A

Pressure: 30.04 "Hg

Humidity: 73%

Dew point: 59 °F

Location of Santa MariaLocation

Historic Weather in Santa Maria — Graph

°F

Santa Maria temperature yesterday

Maximum temperature yesterday: 77 °F (at 12:00 PM)
Minimum temperature yesterday: 66 °F (at 1:00 AM)
Average temperature yesterday: 71 °F

Past Weeks' High & Low Weather Summary

 TemperatureHumidityPressure
High77 °F (Apr 7, 1:00 PM)88% (Apr 11, 10:00 PM)30.09 "Hg (Apr 11, 10:00 PM)
Low66 °F (Apr 4, 2:00 AM)54% (Apr 6, 3:00 PM)29.92 "Hg (Apr 4, 3:00 PM)
Average70 °F72%30.00 "Hg
* Reported Apr 3 10:00 PM — Apr 18 10:00 PM, Santa Maria, Weather by CustomWeather, © 2015

Note: Actual official high and low records may vary slightly from our data, if they occured in-between our weather recording intervals... More about our weather records

Advertising

Santa Maria weather history for previous 24 hours

 ConditionsComfort  
Time TempWeatherWind HumidityBarometerVisibility
10:00 PM
Sat, Apr 18
68 °FPartly cloudy.16 mph73%30.04 "HgN/A
9:00 PM70 °FPassing clouds.14 mph73%30.01 "HgN/A
8:00 PM70 °FPartly cloudy.14 mph73%30.01 "HgN/A
7:00 PM70 °FPassing clouds.16 mph73%29.98 "HgN/A
6:00 PM72 °FPassing clouds.16 mph69%29.95 "HgN/A
5:00 PM73 °FPartly cloudy.16 mph61%29.95 "HgN/A
4:00 PM75 °FBroken clouds.15 mph61%29.95 "HgN/A
3:00 PM75 °FBroken clouds.14 mph61%29.98 "HgN/A
2:00 PM77 °FBroken clouds.15 mph54%29.98 "HgN/A
1:00 PM75 °FScattered clouds.14 mph57%30.01 "HgN/A
12:00 PM75 °FPassing clouds.16 mph57%30.04 "HgN/A
11:00 AM75 °FScattered clouds.15 mph61%30.04 "HgN/A
10:00 AM73 °FPartly sunny.15 mph61%30.04 "HgN/A
9:00 AM72 °FBroken clouds.15 mph69%30.04 "HgN/A
8:00 AM68 °FPartly sunny.14 mph73%30.04 "HgN/A
7:00 AM66 °FBroken clouds.13 mph78%30.01 "HgN/A
6:00 AM68 °FScattered clouds.13 mph78%30.01 "HgN/A
5:00 AM68 °FScattered clouds.14 mph78%29.98 "HgN/A
4:00 AM68 °FPassing clouds.14 mph78%29.98 "HgN/A
3:00 AM68 °FPartly cloudy.14 mph78%29.98 "HgN/A
2:00 AM68 °FPartly cloudy.14 mph78%30.01 "HgN/A
1:00 AM68 °FPassing clouds.12 mph78%30.01 "HgN/A
12:00 AM68 °FPartly cloudy.12 mph78%30.01 "HgN/A
11:00 PM
Fri, Apr 17
68 °FPartly cloudy.14 mph83%30.04 "HgN/A
Weather by CustomWeather, © 2015

See weather overviewHow to use our weather pages